User: anonymous
Location: Mt. Cuba Astronomical Observatory
(39.8100°N, 75.6300°W)
Time: 01:32:55
(UTC-04:00)
Language:

Cosmos 2058 - Orbit

View from above orbital plane
View from above orbital plane
View from above satellite
View from above satellite

Ground track
Ground track

The orbit data is extracted from the following two-line orbital elements,

1 20465U 90010A   14107.81756336  .00003382  00000-0  30963-3 0   855
2 20465 082.4901 277.8316 0016118 219.3190 140.6862 14.94594227312391
Epoch (UTC): 17 April 2014 19:37:17
Eccentricity: 0.0016118
inclination: 82.4901°
perigee height: 572 km
apogee height: 595 km
right ascension of ascending node: 277.8316°
argument of perigee: 219.3190°
revolutions per day: 14.94594227
mean anomaly at epoch: 140.6862°
orbit number at epoch: 31239

The dashed part of the orbit path shows where the satellite is in the earth's shadow,  

DLR